Regional Weather Roundup
Issued by NWS

Home | Current Version | Previous Version | Graphics & Text | Print | Product List | Glossary On
Versions: 1 2 3 4 5 6 7 8 9 10 11 12 13 14 15 16 17 18 19 20 21 22 23 24 25 26 27 28 29 30 31 32 33 34 35 36 37 38 39 40 41 42 43 44 45 46 47 48 49 50
000
ASUS43 KIND 250409
RWRIN

WEATHER ROUNDUP FOR INDIANA
NATIONAL WEATHER SERVICE INDIANAPOLIS IN
1200 AM EDT TUE JUL 25 2017

NOTE: "FAIR" INDICATES FEW OR NO CLOUDS BELOW 12,000 FEET WITH NO
SIGNIFICANT WEATHER AND/OR OBSTRUCTIONS TO VISIBILITY.

* - STATION DOES NOT REPORT WEATHER SUCH AS PRECIPITATION OR FOG.

+ - STATION NOT QUALITY CONTROLLED BY THE NATIONAL WEATHER SERVICE.
    USE DATA WITH CAUTION...ESPECIALLY DEWPOINT AND RELATIVE
    HUMIDITY OBSERVATIONS.

INZ001>003-010>013-019-020-250500-
NORTHWEST INDIANA

CITY           SKY/WX    TMP DP  RH WIND       PRES   REMARKS
GARY /AIRPORT/ MOCLDY    69  62  77 NE8       30.12S
KNOX *+        CLEAR     61  61 100 CALM      30.11R
LA PORTE +     CLEAR     63  60  91 NE3       30.12S
MICHIGAN CITY+ FOG       59  59 100 CALM      30.12S VSB 1
MONTICELLO +   CLEAR     64  62  90 NE3       30.10R
RENSSELAER +   CLEAR     63  59  88 N5        30.11S
VALPARAISO     CLEAR     64  62  93 CALM      30.12R

$$

LMZ046-743>745-250500-
SOUTHERN LAKE MICHIGAN

STATION/POSITION TIME  TEMP    WIND        PRES    WAVE
                       AIR SEA DIR/SP/G            HT
                 (UTC) (F)     (DEG/KT/KT) (MB)    (FT)
BURNS HARBOR     0340   70      50/ 12/ 13 1020.0R
MICHIGAN CITY    0340   68      80/  8/  9   N/A
5NW MICH CITY    0350   70 74   50/ 10/ 14   N/A     4

$$

INZ004-005-014>016-021>024-250500-
NORTH CENTRAL INDIANA

CITY           SKY/WX    TMP DP  RH WIND       PRES   REMARKS
GOSHEN         CLEAR     61  57  87 CALM      30.11R
LOGANSPORT +   CLEAR     63  59  88 E3        30.11S
PERU/GRISSOM   CLEAR     64  60  87 E5        30.10R
ROCHESTER +    CLEAR     63  61  94 CALM      30.11S
SOUTH BEND     CLEAR     62  60  93 N6        30.12R
WARSAW +       CLEAR     59  57  94 CALM      30.12R

$$

INZ006>009-017-018-025>027-250500-
NORTHEAST INDIANA

CITY           SKY/WX    TMP DP  RH WIND       PRES   REMARKS
AUBURN +       CLEAR     61  55  82 CALM      30.12R
FORT WAYNE     CLEAR     61  57  87 CALM      30.12R
HUNTINGTON +   CLEAR     60  59  96 CALM      30.11R
KENDALLVILLE + CLEAR     59  59 100 CALM      30.12R

$$

INZ028-029-035-036-043>045-051>053-250500-
WEST CENTRAL INDIANA

CITY           SKY/WX    TMP DP  RH WIND       PRES   REMARKS
GREENCASTLE +  CLEAR     64  63  94 NE5       30.09R
LAFAYETTE      CLEAR     65  63  93 NE7       30.08R
TERRE HAUTE    CLEAR     69  64  84 N5        30.07R

$$

INZ030>032-037>040-046>048-054>057-064-065-250500-
CENTRAL INDIANA

CITY           SKY/WX    TMP DP  RH WIND       PRES   REMARKS
CP ATTERBURY + CLEAR     66  63  88 NE6       30.08R
FRANKFORT +    MOCLDY    67  64  89 E3        30.11R
GREENWOOD *+   CLEAR    N/A N/A N/A E5        30.08S
INDIANAPOLIS   CLEAR     71  60  68 E9        30.07R
-EAGLE CREEK   CLEAR     70  59  68 NE6       30.08R
KOKOMO +       CLEAR     63  61  93 NE6       30.12R
MARION +       PTCLDY    63  57  82 E5        30.12R
MT COMFORT *+  CLEAR     63  61  94 NE6       30.09S
SHELBYVILLE    CLEAR     65  61  87 NE7       30.07S
ZIONSVILLE +   CLEAR     64  61  88 NE5       30.10R

$$

INZ033-034-041-042-049-050-058-059-250500-
EAST CENTRAL INDIANA

CITY           SKY/WX    TMP DP  RH WIND       PRES   REMARKS
MUNCIE         MOCLDY    64  60  87 E3        30.11R
RICHMOND +     CLEAR     61  59  94 NE6       30.11S

$$

INZ060-061-067>069-081>083-085>088-250500-
SOUTHWEST INDIANA

CITY           SKY/WX    TMP DP  RH WIND       PRES   REMARKS
EVANSVILLE     CLEAR     76  68  76 N6        30.02S
HUNTINGBURG *+ CLEAR     73  69  87 NE6       30.03S

$$

INZ062-063-066-070>080-084-089>092-250500-
SOUTH CENTRAL AND SOUTHEAST INDIANA

CITY           SKY/WX    TMP DP  RH WIND       PRES   REMARKS
BEDFORD +      CLEAR     72  64  78 NE3       30.05R
BLOOMINGTON    CLEAR     72  63  73 E7        30.06R
MADISON *+     CLEAR     70  64  83 NE8       30.08R
NORTH VERNON + CLEAR     68  64  88 NE7       30.08R
SEYMOUR +      CLEAR    N/A N/A N/A NE8       30.05R

$$





USA.gov is the U.S. government's official web portal to all federal, state and local government web resources and services.